Tracking 30744 objects as of 24-Jun-2025
HD Live streaming from Space Station
objects crossing your sky now

COSMOS 2303

Track COSMOS 2303 now!
10-day predictions
COSMOS 2303 is classified as:


NORAD ID: 23445
Int'l Code: 1994-086E
Perigee: 1,420.0 km
Apogee: 1,435.6 km
Inclination: 82.6 °
Period: 114.2 minutes
Semi major axis: 7798 km
RCS: 1.1077 m2 (large)
Launch date: December 26, 1994
Source: Commonwealth of Independent States (former USSR) (CIS)
Launch site: PLESETSK MISSILE AND SPACE COMPLEX (PKMTR)
Your satellite tracking list
Your tracking list is empty




NASA's NSSDC Master Catalog

Two Line Element Set (TLE):
1 23445U 94086E   25174.85559784  .00000037  00000-0  15416-3 0  9995
2 23445  82.5736 214.0198 0009969 299.5988 234.3661 12.60550598402832
Source of the keplerian elements: AFSPC